User: anonymous   Login
Location: Peebles
(55.6412°N, 3.1714°W)
Time: 23:43:54
(UTC+00:00)
Language:

FENGYUN 1C DEB - Orbit

View from above orbital plane
View from above orbital plane
View from above satellite
View from above satellite

Ground track
Ground track

The orbit data is extracted from the following two-line orbital elements,

1 33728U 99025DHR 23332.35394453  .00010944  00000-0  11359-2 0  9996
2 33728  98.9758 280.1236 0187487  62.8192  86.1942 14.77993930872320
Epoch (UTC): 28 November 2023 08:29:40
Eccentricity: 0.0187487
inclination: 98.9758°
perigee height: 504 km
apogee height: 767 km
right ascension of ascending node: 280.1236°
argument of perigee: 62.8192°
revolutions per day: 14.77993930
mean anomaly at epoch: 86.1942°
orbit number at epoch: 87232

The dashed part of the orbit path shows where the satellite is in the earth's shadow,  

DLR